Location: Artiguedieu
(43.5000°N, 0.5454°E)
Time: 12:21:47
(UTC+00:00)

AQUARIUS - Pass Details

Date: 06 December 2020
Orbit: 651 x 652 km, 98.0° (Epoch: 27 January)

Event Time Altitude Azimuth Distance (km) Brightness Sun altitude
Rises 06:27:19 0° 12° (NNE) 2,983 7.5 -8.8°
Reaches altitude 10° 06:29:33 10° 12° (NNE) 2,067 6.6 -8.4°
Maximum altitude 06:34:04 87° 287° (WNW) 659 4.2 -7.6°
Drops below altitude 10° 06:38:33 10° 196° (SSW) 2,050 6.9 -6.9°
Sets 06:40:45 0° 196° (SSW) 2,956 7.7 -6.5°
